Wetbulb
71.03 70.44 68.87 69.24 71.26 70.87 70.24 69.10 67.57 64.38 63.66 68.07 67.62 68.28 68.76 68.27 68.84 67.95 66.35 65.48 65.25 64.46 65.43 66.68 67.22 67.55 67.74 67.92 68.01 67.96 67.76 68.19 68.84 69.41 69.80 70.12 70.50 70.82
71.31 71.30 71.04 70.85 71.23 70.69 69.22 70.15 68.94 66.22 63.79 67.33 66.56 66.86 66.68 65.72 65.86 64.31 63.95 63.71 64.08 63.64 62.86 62.88 63.56 64.33 65.05 65.97 66.72 66.97 67.19 67.28 67.53 67.65 67.51 67.38 67.71 68.10
69.86 69.71 69.48 70.43 69.59 68.82 69.19 69.32 68.78 68.65 65.43 66.81 68.16 67.40 63.08 61.56 61.16 61.53 61.72 61.17 61.61 62.19 61.87 61.29 60.86 60.90 61.46 62.39 63.02 63.56 64.02 63.95 64.56 64.94 65.53 66.13 66.25 66.84
68.33 68.03 67.95 69.30 68.61 69.31 69.04 67.83 68.03 68.90 66.66 64.79 66.18 61.87 60.48 60.12 59.46 58.21 58.73 60.27 59.57 60.91 60.02 59.38 58.40 57.61 56.99 56.73 56.83 57.67 59.21 59.99 60.57 61.05 61.97 62.36 62.27 62.65
64.08 64.02 64.83 65.79 64.83 65.66 66.33 67.19 67.03 67.09 66.86 65.37 63.75 63.80 61.29 60.24 57.89 57.79 57.61 57.03 58.53 59.91 59.32 58.91 58.36 57.46 56.69 55.59 54.64 53.15 52.73 53.61 54.38 55.27 56.41 57.78 59.30 60.55
63.33 62.82 62.36 62.48 64.48 64.72 64.21 64.15 64.60 64.33 64.39 63.24 60.47 60.69 60.43 60.73 59.92 56.73 54.62 55.82 55.46 56.96 57.45 56.62 56.68 57.09 56.44 55.69 54.80 53.37 51.62 51.03 50.98 51.64 52.27 52.98 54.34 56.30
62.53 61.31 60.86 61.08 60.86 62.01 63.47 64.08 64.71 63.37 61.65 59.96 58.29 58.11 57.87 57.83 57.21 56.49 53.77 53.71 54.02 55.34 53.92 53.44 53.05 52.53 53.04 53.93 54.06 53.08 51.58 51.11 50.82 50.79 51.11 51.20 51.50 53.26
63.67 62.29 62.05 60.53 58.88 59.45 59.79 59.81 61.84 64.42 61.55 58.94 58.28 57.84 58.43 59.05 58.21 55.97 54.39 54.99 52.67 56.99 54.33 52.77 53.58 51.68 52.02 51.96 52.81 51.98 51.65 51.44 51.45 51.28 50.77 50.48 50.70 51.37
62.74 63.40 61.79 60.41 61.69 60.60 59.22 59.05 58.20 59.27 61.18 60.85 57.82 58.62 58.69 59.46 59.21 57.37 57.82 56.21 53.61 55.45 54.90 51.83 53.60 51.65 52.11 50.93 51.69 51.31 51.37 51.59 51.31 50.96 50.51 50.08 49.75 49.54
59.85 61.61 61.37 58.90 55.88 58.96 56.21 53.72 52.55 52.43 55.08 57.54 57.70 57.45 56.37 58.54 60.75 59.66 57.20 55.45 56.15 56.83 57.86 50.95 52.34 51.26 51.92 51.43 51.43 51.15 51.16 51.18 50.94 50.55 50.12 49.27 48.27 48.17
56.89 54.13 59.05 57.41 53.57 54.23 58.02 55.82 54.22 52.06 51.75 52.02 52.38 52.52 53.08 53.44 55.58 59.53 57.10 56.46 54.74 54.21 56.30 52.00 51.60 50.53 51.73 51.83 52.64 51.47 50.74 50.35 50.49 50.34 49.81 48.90 47.84 47.97
57.54 55.79 51.79 51.54 50.46 51.15 61.05 59.35 56.80 57.56 56.93 53.92 53.58 53.32 54.68 54.52 56.11 56.71 54.24 54.58 55.43 53.68 57.01 53.21 51.37 50.44 48.57 50.97 52.23 50.92 49.15 49.49 48.97 48.97 48.71 48.04 47.28 48.82
57.10 54.83 52.88 48.59 46.88 47.83 51.96 56.13 53.27 53.78 54.92 55.99 55.96 56.45 55.34 53.39 53.60 54.55 55.39 53.36 51.42 49.75 53.61 54.11 54.09 52.94 52.66 50.07 50.99 51.39 51.17 50.11 48.72 47.68 47.16 46.63 46.51 47.06
54.48 53.48 50.83 44.88 44.05 45.53 48.81 45.46 46.26 48.29 52.48 54.52 52.69 51.58 51.20 51.86 52.17 54.29 55.49 54.59 54.52 53.26 55.05 54.63 51.87 50.99 50.15 50.89 50.08 52.44 52.52 52.98 51.56 51.28 50.59 48.94 47.02 47.50
47.40 46.77 45.96 43.65 43.48 46.92 46.55 47.50 48.20 50.76 53.70 51.76 51.09 50.80 51.02 51.22 53.92 54.53 55.87 55.50 54.90 53.47 54.02 54.08 53.64 52.42 51.24 47.84 48.21 48.79 48.62 51.94 53.72 53.02 52.10 51.19 50.49 49.43
49.03 47.82 50.57 49.31 47.99 51.02 49.10 52.53 51.36 51.18 51.29 51.25 50.87 51.38 52.31 51.46 50.70 50.93 51.94 53.08 51.69 51.37 53.67 53.48 53.05 52.36 48.96 48.98 48.46 48.83 48.78 47.89 50.03 50.16 50.08 49.96 51.29 49.90
51.67 51.84 50.60 50.16 52.60 53.37 53.07 52.79 53.37 53.09 51.52 51.42 50.69 50.33 49.54 50.47 49.07 50.28 49.40 49.76 48.80 49.31 50.21 51.69 52.11 51.78 50.77 50.34 46.62 47.37 46.26 48.34 50.03 48.35 47.36 46.32 48.73 49.81
51.50 51.82 54.13 54.01 53.02 52.58 52.58 51.80 51.76 50.33 50.73 50.93 50.41 49.25 48.52 47.53 47.00 49.05 49.15 48.75 47.35 47.64 48.20 48.78 50.17 49.38 49.09 48.22 47.69 46.05 47.46 47.91 49.21 48.51 46.77 44.41 44.28 47.05
50.61 52.31 53.60 53.25 52.54 52.26 51.77 51.23 49.43 50.14 50.77 50.70 49.91 49.03 47.97 47.99 45.57 47.44 47.41 47.77 47.69 48.01 47.66 47.76 47.08 46.52 43.94 44.40 45.38 48.26 44.07 44.05 44.85 46.79 48.66 45.96 44.23 46.77
49.23 52.22 53.22 53.02 52.69 52.14 51.45 51.30 50.83 50.60 50.53 49.33 49.26 48.92 48.78 48.10 47.07 46.70 47.12 45.68 44.11 45.58 47.04 48.00 47.59 44.93 42.24 41.96 43.54 45.38 45.67 45.76 44.17 43.84 44.55 45.88 48.23 50.88
53.05 53.54 53.46 53.99 53.25 52.91 52.45 51.00 50.41 50.02 47.49 48.79 48.37 48.93 48.72 47.07 46.19 46.26 45.55 43.86 42.27 42.61 44.80 46.12 44.65 48.14 45.24 45.22 43.10 44.39 44.85 45.62 47.57 45.53 44.62 42.78 42.53 44.38
53.01 54.09 54.45 54.30 53.50 53.35 52.19 51.87 50.21 49.55 48.83 48.53 47.84 47.81 49.11 47.90 46.63 46.31 45.65 45.39 44.43 45.21 46.37 47.44 47.49 47.53 46.38 45.61 43.34 45.22 44.81 45.08 46.50 47.46 46.70 44.98 42.16 40.10
54.16 54.09 52.16 52.74 54.33 53.70 53.17 51.50 49.95 49.45 49.32 49.36 48.96 48.49 49.27 47.03 48.18 47.05 46.39 45.66 45.36 45.09 45.68 45.01 46.35 47.93 45.50 45.20 44.45 43.55 46.72 45.47 45.84 43.57 43.66 47.40 46.98 47.04
MSLP
1013.15 1013.68 1013.96 1014.07 1014.14 1014.24 1014.36 1014.51 1014.76 1015.19 1015.26 1015.29 1015.71 1016.33 1016.43 1016.75 1016.99 1017.17 1017.64 1017.79 1017.39 1017.18 1016.91 1016.36 1016.27 1016.22 1016.27 1016.23 1016.22 1016.29 1016.42 1016.43 1016.50 1016.52 1016.79 1017.01 1017.19 1017.29
1013.25 1013.56 1013.80 1013.95 1014.14 1014.21 1014.28 1014.27 1014.64 1014.97 1015.58 1015.92 1016.52 1016.96 1017.03 1017.33 1017.84 1018.06 1018.12 1018.06 1017.84 1017.72 1017.18 1017.00 1016.93 1016.81 1016.78 1016.68 1016.49 1016.42 1016.41 1016.45 1016.52 1016.55 1016.75 1016.93 1017.05 1017.05
1013.60 1013.70 1013.82 1013.83 1014.08 1014.28 1014.49 1014.49 1014.82 1015.18 1015.70 1016.39 1016.69 1017.15 1017.75 1018.05 1018.41 1018.61 1018.54 1018.49 1018.31 1017.83 1017.78 1017.70 1017.63 1017.48 1017.49 1017.49 1017.23 1016.98 1016.99 1017.08 1017.08 1017.09 1017.09 1016.90 1016.91 1016.80
1014.70 1014.59 1014.58 1014.59 1014.63 1014.65 1014.62 1014.94 1015.12 1015.39 1015.68 1016.23 1016.95 1017.84 1018.40 1018.74 1019.11 1019.05 1019.15 1018.94 1018.83 1018.73 1018.48 1018.40 1018.41 1018.43 1018.48 1018.40 1018.53 1018.05 1017.93 1017.77 1017.75 1018.03 1017.89 1017.89 1017.88 1017.78
1016.00 1015.93 1015.81 1015.60 1015.67 1015.69 1015.70 1015.70 1015.79 1015.95 1016.15 1016.54 1017.16 1017.75 1018.53 1018.92 1019.27 1019.35 1019.56 1019.57 1019.57 1019.49 1019.29 1019.34 1019.33 1019.44 1019.34 1019.41 1019.37 1019.27 1019.34 1019.07 1019.06 1019.15 1019.20 1019.13 1019.16 1018.88
1016.84 1016.77 1016.70 1016.60 1016.51 1016.48 1016.49 1016.48 1016.56 1016.71 1016.93 1017.31 1017.73 1018.15 1018.55 1018.90 1019.16 1019.56 1019.96 1020.11 1020.22 1020.19 1020.24 1020.34 1020.25 1020.27 1020.27 1020.29 1020.34 1020.26 1020.31 1020.20 1020.20 1020.35 1020.37 1020.30 1020.20 1020.19
1017.36 1017.46 1017.57 1017.56 1017.39 1017.18 1017.06 1017.14 1017.10 1017.25 1017.46 1017.82 1018.28 1018.64 1018.93 1019.09 1019.34 1019.75 1020.21 1020.65 1020.84 1020.83 1021.03 1021.10 1020.98 1021.07 1021.17 1021.26 1021.16 1021.12 1021.03 1020.95 1021.12 1021.08 1021.11 1021.08 1020.92 1020.90
1017.48 1017.71 1017.79 1017.94 1017.95 1017.89 1017.90 1017.84 1017.62 1017.61 1017.82 1018.11 1018.63 1018.89 1019.14 1019.29 1019.58 1019.92 1020.28 1020.40 1020.88 1021.08 1021.31 1021.77 1021.65 1021.81 1021.84 1021.87 1021.84 1021.83 1021.82 1021.70 1021.70 1021.61 1021.63 1021.59 1021.61 1021.64
1017.84 1017.73 1017.95 1018.51 1018.33 1018.46 1018.57 1018.52 1018.45 1018.32 1018.38 1018.54 1018.95 1019.01 1019.07 1019.12 1019.31 1019.75 1019.97 1020.22 1020.69 1021.08 1021.09 1021.63 1021.92 1022.23 1022.26 1022.33 1022.34 1022.31 1022.28 1022.31 1022.28 1022.30 1022.31 1022.28 1022.30 1022.28
1018.78 1018.64 1018.81 1019.17 1019.29 1019.08 1019.26 1019.38 1019.46 1019.37 1019.34 1019.35 1019.45 1019.47 1019.40 1019.14 1018.97 1019.30 1019.89 1020.42 1020.67 1020.78 1020.78 1021.70 1022.36 1022.47 1022.69 1022.61 1022.57 1022.57 1022.61 1022.75 1022.78 1022.77 1022.83 1022.90 1022.92 1023.00
1019.69 1019.69 1019.61 1019.76 1019.63 1019.35 1019.38 1019.66 1019.82 1019.89 1019.93 1019.77 1019.78 1019.86 1019.76 1019.46 1019.26 1019.33 1019.84 1020.04 1020.17 1020.43 1020.80 1021.34 1022.15 1022.44 1022.56 1022.76 1022.68 1022.72 1022.78 1022.90 1023.00 1023.00 1023.10 1023.21 1023.31 1023.33
1019.84 1020.28 1020.51 1020.47 1020.18 1019.80 1019.57 1019.62 1019.92 1019.87 1019.67 1019.81 1019.81 1019.74 1019.62 1019.74 1019.63 1019.42 1019.57 1019.36 1019.74 1020.18 1020.42 1020.70 1021.50 1021.90 1022.44 1022.58 1022.52 1022.64 1022.73 1022.76 1022.93 1023.28 1023.35 1023.35 1023.37 1023.20
1019.45 1020.37 1021.06 1021.12 1020.83 1020.36 1020.18 1020.19 1020.35 1020.25 1019.98 1019.76 1019.68 1019.56 1019.61 1019.80 1020.16 1020.09 1019.87 1019.92 1020.00 1020.15 1020.49 1020.34 1020.56 1020.97 1021.30 1021.78 1021.98 1022.05 1022.13 1022.27 1022.88 1023.15 1023.25 1023.29 1023.40 1023.44
1020.27 1020.88 1021.49 1021.45 1021.21 1020.92 1020.79 1020.77 1020.70 1020.49 1020.19 1019.93 1019.64 1019.91 1020.14 1020.25 1020.40 1020.47 1020.26 1020.27 1020.22 1020.46 1020.47 1020.44 1020.34 1020.45 1020.72 1021.00 1021.11 1021.33 1021.51 1021.51 1022.09 1022.33 1022.61 1022.68 1022.92 1023.04
1020.92 1021.41 1021.70 1021.74 1021.61 1021.15 1020.88 1020.76 1020.62 1020.49 1019.89 1019.91 1020.07 1020.22 1020.40 1020.27 1020.34 1020.45 1020.42 1020.48 1020.45 1020.42 1020.37 1020.37 1020.45 1020.44 1020.23 1020.31 1020.52 1020.74 1020.64 1021.13 1021.12 1021.71 1022.03 1022.13 1022.20 1022.42
1021.41 1021.57 1021.54 1021.68 1021.53 1021.12 1020.88 1020.70 1020.66 1020.57 1020.41 1020.54 1020.43 1020.35 1020.29 1020.27 1020.42 1020.45 1020.35 1020.63 1020.79 1020.95 1020.72 1020.52 1020.53 1020.65 1020.82 1020.55 1020.61 1020.78 1020.67 1021.19 1021.56 1021.71 1021.79 1021.68 1021.40 1021.47
1021.68 1021.49 1021.38 1021.25 1020.97 1020.71 1020.66 1020.69 1020.77 1020.86 1020.92 1020.85 1020.70 1020.61 1020.59 1020.60 1020.73 1020.71 1020.66 1020.46 1020.50 1020.89 1021.07 1020.85 1020.54 1020.62 1020.89 1021.12 1021.13 1020.98 1021.00 1021.33 1021.31 1021.50 1021.50 1021.44 1021.19 1021.31
1021.67 1021.05 1020.50 1020.42 1020.37 1020.43 1020.51 1020.59 1020.70 1021.04 1021.30 1021.19 1021.07 1021.04 1021.06 1021.27 1021.41 1021.05 1020.88 1020.81 1020.77 1020.74 1020.81 1020.68 1020.76 1020.95 1021.15 1021.35 1021.39 1021.45 1021.12 1021.24 1021.35 1021.29 1021.39 1021.59 1021.52 1021.46
1021.52 1020.70 1020.20 1020.25 1020.38 1020.51 1020.62 1020.74 1021.17 1021.42 1021.54 1021.52 1021.40 1021.40 1021.27 1021.33 1021.42 1021.27 1021.19 1020.97 1020.84 1020.76 1020.80 1020.72 1020.83 1020.84 1021.22 1021.40 1021.53 1021.45 1021.47 1021.31 1021.23 1021.35 1021.27 1021.15 1021.16 1021.11
1021.06 1020.29 1020.03 1020.26 1020.44 1020.65 1020.83 1020.99 1021.18 1021.42 1021.48 1021.59 1021.60 1021.58 1021.41 1021.40 1021.31 1021.23 1021.09 1021.12 1021.19 1021.15 1020.78 1020.56 1020.74 1021.18 1021.63 1021.94 1021.69 1021.39 1021.22 1021.21 1021.29 1021.48 1021.29 1021.01 1020.60 1020.46
1019.87 1019.68 1019.90 1020.17 1020.44 1020.73 1020.96 1021.24 1021.52 1021.59 1021.75 1021.80 1021.78 1021.71 1021.47 1021.41 1021.39 1021.16 1021.15 1021.16 1021.24 1021.16 1020.96 1020.81 1020.89 1020.91 1021.25 1021.33 1021.32 1021.28 1021.10 1020.97 1020.97 1021.10 1021.12 1021.05 1020.90 1020.81
1019.42 1019.43 1019.57 1019.90 1020.18 1020.55 1020.82 1021.16 1021.37 1021.41 1021.44 1021.50 1021.51 1021.46 1021.33 1021.20 1021.35 1021.18 1021.07 1021.04 1021.10 1020.96 1020.55 1020.46 1020.78 1020.87 1021.12 1021.08 1020.76 1020.53 1020.70 1020.85 1020.80 1020.90 1020.85 1020.96 1020.85 1020.88
1019.37 1019.44 1019.63 1019.77 1020.03 1020.23 1020.45 1020.60 1020.87 1021.05 1021.06 1021.04 1021.00 1021.04 1020.99 1021.00 1020.97 1020.92 1020.82 1020.70 1020.64 1020.55 1020.24 1020.16 1020.07 1020.26 1020.40 1020.41 1020.27 1020.13 1020.19 1020.29 1020.36 1020.66 1020.66 1020.32 1020.34 1020.31
Wind_Speed
5 5 4 4 4 4 4 1 2 2 1 3 3 8 7 8 11 9 8 16 16 15 13 12 11 9 7 7 6 5 5 6 9 10 9 10 14 16
3 4 4 5 4 3 4 2 2 1 1 3 4 4 6 7 11 8 8 11 16 14 16 17 17 17 14 12 10 9 8 6 5 4 2 2 4 6
3 2 4 3 3 1 2 3 1 2 1 2 2 5 6 7 7 7 7 7 8 18 18 18 18 18 17 15 15 15 17 18 18 18 16 13 12 13
9 8 9 7 9 7 5 5 5 4 2 4 2 3 5 6 5 8 6 7 9 19 22 22 22 22 21 22 19 19 17 20 21 19 21 21 23 24
11 11 11 9 8 7 6 5 5 4 4 3 3 2 2 2 5 6 6 8 7 16 21 22 22 22 23 23 23 22 19 21 21 21 21 20 19 21
9 9 9 8 7 7 6 6 5 5 4 5 5 4 3 3 3 3 4 5 5 6 13 15 17 21 21 20 19 20 19 19 18 17 16 14 14 15
8 9 9 12 15 11 5 5 5 5 4 5 3 2 2 2 3 2 3 3 5 4 5 6 6 6 8 12 15 17 17 17 14 14 13 12 12 11
6 7 9 12 12 13 14 16 10 3 5 4 3 4 2 2 2 3 3 2 2 1 3 4 4 6 5 4 13 13 13 13 12 12 12 13 13 13
9 7 9 9 6 7 10 13 16 14 12 7 7 5 4 2 3 3 1 4 3 3 3 4 3 5 4 5 10 10 11 11 13 13 12 12 12 13
11 7 7 9 9 6 9 9 9 9 8 6 6 5 4 4 4 4 5 5 4 3 2 3 2 3 2 2 6 7 8 8 9 9 10 10 10 10
8 11 9 8 11 11 8 7 6 6 6 8 7 5 6 8 6 4 4 5 3 3 4 4 3 2 1 1 2 4 5 5 5 6 7 7 6 7
7 7 12 8 10 12 4 5 5 3 4 4 2 3 4 5 10 6 6 3 3 3 1 3 4 4 2 3 3 3 4 6 6 6 6 6 6 4
6 6 5 9 9 9 11 6 4 5 2 2 2 2 3 6 4 5 6 6 5 6 2 2 4 4 2 4 4 4 5 4 4 5 7 7 7 6
7 5 3 4 7 9 6 5 6 6 4 5 4 4 5 4 4 3 4 5 4 5 4 4 2 3 2 4 4 6 6 6 6 5 6 7 11 11
5 6 5 3 6 3 1 5 7 5 3 4 4 3 4 1 2 2 3 2 3 3 3 4 4 5 3 2 2 4 3 3 6 5 3 5 5 4
5 4 3 4 5 1 2 1 4 4 4 3 3 2 1 3 3 3 1 4 3 1 3 3 4 5 4 4 4 3 3 4 3 3 3 4 4 3
4 2 3 5 5 4 3 3 3 2 3 3 4 3 3 2 2 2 3 4 1 4 3 2 2 2 3 3 3 3 2 4 4 3 1 3 1 5
3 6 3 1 2 3 2 3 4 1 5 4 3 4 3 4 4 4 2 3 2 1 2 2 3 2 1 2 4 4 3 3 2 4 2 1 2 3
5 6 2 3 3 3 3 4 6 4 2 3 3 1 3 1 2 3 2 3 2 0 2 2 3 3 2 4 0 1 3 3 3 3 3 4 3 3
6 5 3 3 3 3 3 4 4 2 3 1 3 3 2 3 3 3 3 3 4 5 3 3 3 4 3 2 1 4 2 0 2 3 4 3 2 5
5 3 3 1 2 0 3 3 1 1 1 2 3 4 3 2 4 2 1 1 2 3 5 2 4 6 2 2 3 3 3 7 4 2 2 2 4 4
4 1 1 4 3 2 3 2 1 3 4 3 4 4 4 1 4 4 4 1 4 5 5 5 5 4 3 4 6 3 5 4 6 6 6 7 2 2
2 3 3 4 0 4 4 4 3 3 4 3 3 3 3 3 3 3 3 4 4 5 3 3 2 4 5 5 4 3 3 8 6 6 5 11 11 10
Wind_Direction
194 206 210 243 255 271 275 144 169 176 335 27 71 40 54 62 50 48 62 41 42 42 38 49 50 42 12 341 321 307 307 300 281 245 241 245 257 272
190 190 204 235 261 255 284 301 223 196 148 31 45 82 65 69 61 58 57 51 47 50 51 54 57 52 47 47 49 47 43 38 35 32 14 311 290 293
64 206 267 255 196 181 311 284 61 64 161 117 90 61 50 63 54 51 47 51 49 57 60 59 56 57 54 50 62 72 79 75 71 69 68 65 65 69
41 48 45 40 49 38 49 62 67 52 57 108 82 72 66 59 64 68 48 48 55 59 62 61 63 62 60 60 54 56 69 78 77 76 75 80 84 87
39 37 30 42 49 48 44 42 56 54 53 96 110 93 125 133 82 66 60 58 52 60 61 65 68 67 69 66 63 59 53 67 65 65 62 64 67 77
56 51 46 38 42 64 63 59 60 63 53 64 52 61 80 94 93 89 68 49 59 51 58 60 59 62 62 64 67 70 70 67 67 66 67 65 69 75
69 68 64 63 59 48 57 46 61 73 74 78 75 74 51 50 55 73 85 76 53 50 65 52 58 54 53 56 68 75 80 82 80 82 78 72 72 77
114 120 105 80 64 66 66 58 50 101 105 111 130 108 108 112 125 116 135 189 109 127 74 72 57 62 63 55 75 78 79 84 82 77 76 73 70 66
43 43 74 52 77 85 50 45 38 38 59 61 69 52 80 73 129 158 149 86 109 152 124 79 61 70 73 78 81 84 80 76 79 76 74 76 76 75
27 54 68 56 25 45 84 70 56 45 36 60 54 51 53 27 68 79 110 118 129 148 185 94 43 58 80 92 104 98 93 90 94 90 83 79 80 81
56 31 36 38 2 1 117 117 118 108 80 87 99 101 77 54 22 181 174 192 165 139 195 123 158 160 200 169 156 143 130 127 126 113 112 120 122 125
113 85 45 24 13 10 61 79 66 61 120 155 187 221 205 75 37 42 1 338 117 136 196 112 162 158 182 198 180 176 189 191 187 176 182 181 189 255
118 87 51 11 19 31 46 41 44 336 302 279 199 208 129 76 60 21 13 48 19 72 22 18 192 176 231 156 179 187 207 165 184 197 220 223 231 247
82 89 90 22 52 39 62 16 349 336 291 257 82 58 45 59 75 60 54 58 60 89 40 24 299 70 252 156 176 174 204 193 182 178 188 210 223 240
70 78 82 336 314 102 292 298 311 277 286 60 66 76 114 188 173 190 120 100 47 51 62 38 23 355 335 66 69 178 160 126 159 161 176 187 189 194
118 153 207 249 222 116 319 220 30 4 13 27 45 40 103 46 42 350 166 198 154 127 44 54 42 11 8 12 24 37 63 126 144 148 201 225 223 205
238 173 213 229 205 194 119 39 73 328 43 15 13 11 30 34 102 356 339 322 360 159 173 241 131 62 67 28 359 25 10 127 143 155 308 303 334 126
294 273 191 351 27 45 77 152 150 158 30 4 23 14 12 40 1 348 328 323 341 56 42 147 183 163 173 30 82 334 359 43 141 163 174 250 280 128
258 286 65 73 45 42 8 28 77 63 27 308 352 20 0 156 268 276 306 289 292 163 142 89 339 11 350 166 184 109 67 348 329 340 215 194 212 204
250 275 95 84 43 35 20 13 33 142 203 37 347 305 316 339 318 323 314 43 14 335 292 190 114 74 39 2 299 210 303 199 46 329 321 340 280 151
219 131 133 97 135 309 81 80 56 352 348 11 344 304 297 350 318 279 30 150 170 277 287 94 146 149 216 278 267 192 241 231 236 192 312 263 277 288
352 344 140 152 141 140 149 135 277 239 215 220 239 263 262 225 280 312 327 283 216 244 252 143 164 162 198 238 266 186 183 205 237 239 226 198 225 238
316 10 354 5 183 176 185 179 212 268 291 261 223 249 256 233 259 298 288 268 266 265 262 262 195 198 202 242 240 290 191 203 196 203 233 243 242 247